Year,Month,Day,Hour,Minute,Value (Times are PST for temperature in C)
2008,07,16,00,00,14.80
2008,07,16,00,01,14.70
2008,07,16,00,02,14.70
2008,07,16,00,03,14.70
2008,07,16,00,04,14.60
2008,07,16,00,05,14.60
2008,07,16,00,06,14.50
2008,07,16,00,07,14.50
2008,07,16,00,08,14.60
2008,07,16,00,09,14.50
2008,07,16,00,10,14.50
2008,07,16,00,11,14.50
2008,07,16,00,12,14.60
2008,07,16,00,13,14.60
2008,07,16,00,14,14.70
2008,07,16,00,15,14.80
2008,07,16,00,16,15.00
2008,07,16,00,17,15.00
2008,07,16,00,18,15.00
2008,07,16,00,19,15.00
2008,07,16,00,20,15.00
2008,07,16,00,21,15.20
2008,07,16,00,22,15.20
2008,07,16,00,23,15.30
2008,07,16,00,24,15.50
2008,07,16,00,25,15.60
2008,07,16,00,26,15.80
2008,07,16,00,27,15.90
2008,07,16,00,28,16.00
2008,07,16,00,29,16.10
2008,07,16,00,30,16.20
2008,07,16,00,31,16.20
2008,07,16,00,32,16.30
2008,07,16,00,33,16.40
2008,07,16,00,34,16.40
2008,07,16,00,35,16.50
2008,07,16,00,36,16.50
2008,07,16,00,37,16.60
2008,07,16,00,38,16.60
2008,07,16,00,39,16.70
2008,07,16,00,40,16.70
2008,07,16,00,41,16.70
2008,07,16,00,42,16.70
2008,07,16,00,43,16.70
2008,07,16,00,44,16.60
2008,07,16,00,45,16.60
2008,07,16,00,46,16.60
2008,07,16,00,47,16.60
2008,07,16,00,48,16.60
2008,07,16,00,49,16.60
2008,07,16,00,50,16.50
2008,07,16,00,51,16.50
2008,07,16,00,52,16.40
2008,07,16,00,53,16.30
2008,07,16,00,54,16.30
2008,07,16,00,55,16.30
2008,07,16,00,56,16.30
2008,07,16,00,57,16.20
2008,07,16,00,58,16.20
2008,07,16,00,59,16.20
2008,07,16,01,00,16.20
2008,07,16,01,01,16.10
2008,07,16,01,02,16.10
2008,07,16,01,03,16.10
2008,07,16,01,04,16.00
2008,07,16,01,05,16.00
2008,07,16,01,06,15.90
2008,07,16,01,07,15.90
2008,07,16,01,08,15.80
2008,07,16,01,09,15.70
2008,07,16,01,10,15.70
2008,07,16,01,11,15.60
2008,07,16,01,12,15.50
2008,07,16,01,13,15.40
2008,07,16,01,14,15.30
2008,07,16,01,15,15.30
2008,07,16,01,16,15.30
2008,07,16,01,17,15.20
2008,07,16,01,18,15.20
2008,07,16,01,19,15.10
2008,07,16,01,20,15.00
2008,07,16,01,21,15.00
2008,07,16,01,22,15.00
2008,07,16,01,23,15.00
2008,07,16,01,24,15.00
2008,07,16,01,25,15.00
2008,07,16,01,26,15.00
2008,07,16,01,27,15.00
2008,07,16,01,28,15.10
2008,07,16,01,29,15.30
2008,07,16,01,30,15.50
2008,07,16,01,31,15.60
2008,07,16,01,32,15.70
2008,07,16,01,33,15.70
2008,07,16,01,34,15.70
2008,07,16,01,35,15.70
2008,07,16,01,36,15.80
2008,07,16,01,37,15.80
2008,07,16,01,38,15.80
2008,07,16,01,39,15.80
2008,07,16,01,40,15.80
2008,07,16,01,41,15.80
2008,07,16,01,42,15.80
2008,07,16,01,43,15.80
2008,07,16,01,44,15.80
2008,07,16,01,45,15.80
2008,07,16,01,46,15.80
2008,07,16,01,47,15.80
2008,07,16,01,48,15.80
2008,07,16,01,49,15.70
2008,07,16,01,50,15.70
2008,07,16,01,51,15.70
2008,07,16,01,52,15.70
2008,07,16,01,53,15.70
2008,07,16,01,54,15.60
2008,07,16,01,55,15.60
2008,07,16,01,56,15.50
2008,07,16,01,57,15.50
2008,07,16,01,58,15.40
2008,07,16,01,59,15.40
2008,07,16,02,00,15.40
2008,07,16,02,01,15.30
2008,07,16,02,02,15.30
2008,07,16,02,03,15.30
2008,07,16,02,04,15.30
2008,07,16,02,05,15.20
2008,07,16,02,06,15.10
2008,07,16,02,07,15.00
2008,07,16,02,08,15.00
2008,07,16,02,09,14.80
2008,07,16,02,10,14.60
2008,07,16,02,11,14.50
2008,07,16,02,12,14.40
2008,07,16,02,13,14.30
2008,07,16,02,14,14.20
2008,07,16,02,15,14.10
2008,07,16,02,16,13.90
2008,07,16,02,17,13.80
2008,07,16,02,18,13.70
2008,07,16,02,19,13.60
2008,07,16,02,20,13.50
2008,07,16,02,21,13.40
2008,07,16,02,22,13.40
2008,07,16,02,23,13.40
2008,07,16,02,24,13.40
2008,07,16,02,25,13.40
2008,07,16,02,26,13.40
2008,07,16,02,27,13.30
2008,07,16,02,28,13.30
2008,07,16,02,29,13.30
2008,07,16,02,30,13.30
2008,07,16,02,31,13.50
2008,07,16,02,32,13.60
2008,07,16,02,33,13.70
2008,07,16,02,34,13.80
2008,07,16,02,35,13.90
2008,07,16,02,36,14.00
2008,07,16,02,37,14.10
2008,07,16,02,38,14.20
2008,07,16,02,39,14.30
2008,07,16,02,40,14.40
2008,07,16,02,41,14.40
2008,07,16,02,42,14.40
2008,07,16,02,43,14.40
2008,07,16,02,44,14.40
2008,07,16,02,45,14.40
2008,07,16,02,46,14.30
2008,07,16,02,47,14.30
2008,07,16,02,48,14.30
2008,07,16,02,49,14.20
2008,07,16,02,50,14.10
2008,07,16,02,51,13.90
2008,07,16,02,52,13.60
2008,07,16,02,53,13.50
2008,07,16,02,54,13.30
2008,07,16,02,55,13.20
2008,07,16,02,56,13.10
2008,07,16,02,57,13.00
2008,07,16,02,58,12.90
2008,07,16,02,59,12.80
2008,07,16,03,00,12.70
2008,07,16,03,01,12.60
2008,07,16,03,02,12.50
2008,07,16,03,03,12.40
2008,07,16,03,04,12.30
2008,07,16,03,05,12.20
2008,07,16,03,06,12.10
2008,07,16,03,07,12.10
2008,07,16,03,08,12.00
2008,07,16,03,09,11.90
2008,07,16,03,10,11.90
2008,07,16,03,11,11.90
2008,07,16,03,12,11.90
2008,07,16,03,13,11.90
2008,07,16,03,14,11.90
2008,07,16,03,15,12.00
2008,07,16,03,16,12.00
2008,07,16,03,17,12.10
2008,07,16,03,18,12.20
2008,07,16,03,19,12.20
2008,07,16,03,20,12.20
2008,07,16,03,21,12.10
2008,07,16,03,22,12.10
2008,07,16,03,23,12.00
2008,07,16,03,24,11.90
2008,07,16,03,25,11.80
2008,07,16,03,26,11.80
2008,07,16,03,27,11.70
2008,07,16,03,28,11.60
2008,07,16,03,29,11.60
2008,07,16,03,30,11.60
2008,07,16,03,31,11.50
2008,07,16,03,32,11.40
2008,07,16,03,33,11.40
2008,07,16,03,34,11.40
2008,07,16,03,35,11.40
2008,07,16,03,36,11.30
2008,07,16,03,37,11.30
2008,07,16,03,38,11.30
2008,07,16,03,39,11.30
2008,07,16,03,40,11.30
2008,07,16,03,41,11.30
2008,07,16,03,42,11.40
2008,07,16,03,43,11.50
2008,07,16,03,44,11.70
2008,07,16,03,45,11.90
2008,07,16,03,46,12.00
2008,07,16,03,47,12.10
2008,07,16,03,48,12.30
2008,07,16,03,49,12.40
2008,07,16,03,50,12.60
2008,07,16,03,51,12.70
2008,07,16,03,52,12.80
2008,07,16,03,53,12.90
2008,07,16,03,54,13.00
2008,07,16,03,55,13.10
2008,07,16,03,56,13.20
2008,07,16,03,57,13.30
2008,07,16,03,58,13.40
2008,07,16,03,59,13.60
2008,07,16,04,00,13.70
2008,07,16,04,01,13.80
2008,07,16,04,02,13.80
2008,07,16,04,03,13.90
2008,07,16,04,04,13.90
2008,07,16,04,05,14.10
2008,07,16,04,06,14.20
2008,07,16,04,07,14.20
2008,07,16,04,08,14.30
2008,07,16,04,09,14.30
2008,07,16,04,10,14.50
2008,07,16,04,11,14.50
2008,07,16,04,12,14.60
2008,07,16,04,13,14.60
2008,07,16,04,14,14.70
2008,07,16,04,15,14.70
2008,07,16,04,16,14.70
2008,07,16,04,17,14.80
2008,07,16,04,18,14.80
2008,07,16,04,19,14.80
2008,07,16,04,20,14.80
2008,07,16,04,21,14.80
2008,07,16,04,22,14.90
2008,07,16,04,23,14.90
2008,07,16,04,24,15.00
2008,07,16,04,25,15.00
2008,07,16,04,26,15.00
2008,07,16,04,27,14.90
2008,07,16,04,28,14.90
2008,07,16,04,29,14.90
2008,07,16,04,30,14.90
2008,07,16,04,31,14.90
2008,07,16,04,32,14.80
2008,07,16,04,33,14.70
2008,07,16,04,34,14.70
2008,07,16,04,35,14.60
2008,07,16,04,36,14.60
2008,07,16,04,37,14.50
2008,07,16,04,38,14.40
2008,07,16,04,39,14.40
2008,07,16,04,40,14.30
2008,07,16,04,41,14.20
2008,07,16,04,42,14.00
2008,07,16,04,43,13.90
2008,07,16,04,44,13.70
2008,07,16,04,45,13.50
2008,07,16,04,46,13.30
2008,07,16,04,47,13.10
2008,07,16,04,48,12.90
2008,07,16,04,49,12.80
2008,07,16,04,50,12.70
2008,07,16,04,51,12.50
2008,07,16,04,52,12.50
2008,07,16,04,53,12.40
2008,07,16,04,54,12.30
2008,07,16,04,55,12.30
2008,07,16,04,56,12.20
2008,07,16,04,57,12.10
2008,07,16,04,58,11.90
2008,07,16,04,59,11.80
2008,07,16,05,00,11.80
2008,07,16,05,01,11.80
2008,07,16,05,02,11.70
2008,07,16,05,03,11.70
2008,07,16,05,04,11.60
2008,07,16,05,05,11.50
2008,07,16,05,06,11.40
2008,07,16,05,07,11.30
2008,07,16,05,08,11.20
2008,07,16,05,09,11.20
2008,07,16,05,10,11.20
2008,07,16,05,11,11.10
2008,07,16,05,12,11.10
2008,07,16,05,13,11.10
2008,07,16,05,14,11.10
2008,07,16,05,15,11.00
2008,07,16,05,16,10.90
2008,07,16,05,17,10.90
2008,07,16,05,18,10.90
2008,07,16,05,19,10.90
2008,07,16,05,20,11.00
2008,07,16,05,21,11.00
2008,07,16,05,22,11.10
2008,07,16,05,23,11.10
2008,07,16,05,24,11.10
2008,07,16,05,25,11.10
2008,07,16,05,26,11.10
2008,07,16,05,27,11.20
2008,07,16,05,28,11.20
2008,07,16,05,29,11.20
2008,07,16,05,30,11.30
2008,07,16,05,31,11.30
2008,07,16,05,32,11.50
2008,07,16,05,33,11.60
2008,07,16,05,34,11.70
2008,07,16,05,35,11.80
2008,07,16,05,36,11.80
2008,07,16,05,37,11.90
2008,07,16,05,38,11.90
2008,07,16,05,39,12.00
2008,07,16,05,40,12.00
2008,07,16,05,41,12.00
2008,07,16,05,42,12.00
2008,07,16,05,43,12.00
2008,07,16,05,44,12.10
2008,07,16,05,45,12.10
2008,07,16,05,46,12.20
2008,07,16,05,47,12.20
2008,07,16,05,48,12.20
2008,07,16,05,49,12.20
2008,07,16,05,50,12.10
2008,07,16,05,51,12.00
2008,07,16,05,52,11.90
2008,07,16,05,53,11.80
2008,07,16,05,54,11.70
2008,07,16,05,55,11.70
2008,07,16,05,56,11.60
2008,07,16,05,57,11.50
2008,07,16,05,58,11.50
2008,07,16,05,59,11.40
2008,07,16,06,00,11.40
2008,07,16,06,01,11.40
2008,07,16,06,02,11.40
2008,07,16,06,03,11.30
2008,07,16,06,04,11.30
2008,07,16,06,05,11.20
2008,07,16,06,06,11.20
2008,07,16,06,07,11.30
2008,07,16,06,08,11.30
2008,07,16,06,09,11.30
2008,07,16,06,10,11.30
2008,07,16,06,11,11.30
2008,07,16,06,12,11.40
2008,07,16,06,13,11.40
2008,07,16,06,14,11.40
2008,07,16,06,15,11.50
2008,07,16,06,16,11.50
2008,07,16,06,17,11.50
2008,07,16,06,18,11.50
2008,07,16,06,19,11.50
2008,07,16,06,20,11.50
2008,07,16,06,21,11.60
2008,07,16,06,22,11.60
2008,07,16,06,23,11.60
2008,07,16,06,24,11.70
2008,07,16,06,25,11.70
2008,07,16,06,26,11.80
2008,07,16,06,27,11.80
2008,07,16,06,28,11.80
2008,07,16,06,29,11.80
2008,07,16,06,30,11.70
2008,07,16,06,31,11.70
2008,07,16,06,32,11.70
2008,07,16,06,33,11.70
2008,07,16,06,34,11.70
2008,07,16,06,35,11.80
2008,07,16,06,36,11.80
2008,07,16,06,37,11.90
2008,07,16,06,38,11.90
2008,07,16,06,39,11.90
2008,07,16,06,40,12.00
2008,07,16,06,41,12.00
2008,07,16,06,42,12.10
2008,07,16,06,43,12.10
2008,07,16,06,44,12.20
2008,07,16,06,45,12.20
2008,07,16,06,46,12.20
2008,07,16,06,47,12.20
2008,07,16,06,48,12.30
2008,07,16,06,49,12.40
2008,07,16,06,50,12.40
2008,07,16,06,51,12.50
2008,07,16,06,52,12.60
2008,07,16,06,53,12.70
2008,07,16,06,54,12.70
2008,07,16,06,55,12.80
2008,07,16,06,56,12.90
2008,07,16,06,57,13.00
2008,07,16,06,58,13.10
2008,07,16,06,59,13.20
2008,07,16,07,00,13.30
2008,07,16,07,01,13.40
2008,07,16,07,02,13.60
2008,07,16,07,03,13.70
2008,07,16,07,04,13.80
2008,07,16,07,05,13.90
2008,07,16,07,06,14.00
2008,07,16,07,07,14.00
2008,07,16,07,08,14.10
2008,07,16,07,09,14.20
2008,07,16,07,10,14.20
2008,07,16,07,11,14.30
2008,07,16,07,12,14.30
2008,07,16,07,13,14.30
2008,07,16,07,14,14.40
2008,07,16,07,15,14.40
2008,07,16,07,16,14.50
2008,07,16,07,17,14.60
2008,07,16,07,18,14.60
2008,07,16,07,19,14.60
2008,07,16,07,20,14.70
2008,07,16,07,21,14.70
2008,07,16,07,22,14.70
2008,07,16,07,23,14.80
2008,07,16,07,24,14.80
2008,07,16,07,25,14.80
2008,07,16,07,26,14.90
2008,07,16,07,27,14.90
2008,07,16,07,28,15.00
2008,07,16,07,29,15.00
2008,07,16,07,30,15.00
2008,07,16,07,31,15.00
2008,07,16,07,32,15.00
2008,07,16,07,33,15.00
2008,07,16,07,34,15.00
2008,07,16,07,35,15.00
2008,07,16,07,36,15.00
2008,07,16,07,37,15.00
2008,07,16,07,38,15.00
2008,07,16,07,39,15.00
2008,07,16,07,40,15.00
2008,07,16,07,41,15.00
2008,07,16,07,42,15.00
2008,07,16,07,43,15.00
2008,07,16,07,44,15.00
2008,07,16,07,45,15.10
2008,07,16,07,46,15.20
2008,07,16,07,47,15.20
2008,07,16,07,48,15.20
2008,07,16,07,49,15.10
2008,07,16,07,50,15.00
2008,07,16,07,51,15.00
2008,07,16,07,52,15.00
2008,07,16,07,53,15.00
2008,07,16,07,54,15.00
2008,07,16,07,55,15.00
2008,07,16,07,56,15.00
2008,07,16,07,57,15.00
2008,07,16,07,58,15.00
2008,07,16,07,59,15.00
2008,07,16,08,00,15.00
2008,07,16,08,01,15.00
2008,07,16,08,02,15.00
2008,07,16,08,03,15.00
2008,07,16,08,04,15.00
2008,07,16,08,05,15.00
2008,07,16,08,06,15.00
2008,07,16,08,07,15.00
2008,07,16,08,08,15.00
2008,07,16,08,09,15.00
2008,07,16,08,10,15.00
2008,07,16,08,11,15.00
2008,07,16,08,12,15.00
2008,07,16,08,13,15.10
2008,07,16,08,14,15.20
2008,07,16,08,15,15.20
2008,07,16,08,16,15.20
2008,07,16,08,17,15.20
2008,07,16,08,18,15.30
2008,07,16,08,19,15.30
2008,07,16,08,20,15.30
2008,07,16,08,21,15.40
2008,07,16,08,22,15.40
2008,07,16,08,23,15.40
2008,07,16,08,24,15.40
2008,07,16,08,25,15.40
2008,07,16,08,26,15.40
2008,07,16,08,27,15.40
2008,07,16,08,28,15.40
2008,07,16,08,29,15.30
2008,07,16,08,30,15.30
2008,07,16,08,31,15.40
2008,07,16,08,32,15.40
2008,07,16,08,33,15.40
2008,07,16,08,34,15.40
2008,07,16,08,35,15.40
2008,07,16,08,36,15.40
2008,07,16,08,37,15.40
2008,07,16,08,38,15.50
2008,07,16,08,39,15.50
2008,07,16,08,40,15.50
2008,07,16,08,41,15.50
2008,07,16,08,42,15.60
2008,07,16,08,43,15.60
2008,07,16,08,44,15.60
2008,07,16,08,45,15.60
2008,07,16,08,46,15.70
2008,07,16,08,47,15.70
2008,07,16,08,48,15.60
2008,07,16,08,49,15.50
2008,07,16,08,50,15.40
2008,07,16,08,51,15.30
2008,07,16,08,52,15.20
2008,07,16,08,53,15.20
2008,07,16,08,54,15.30
2008,07,16,08,55,15.30
2008,07,16,08,56,15.30
2008,07,16,08,57,15.30
2008,07,16,08,58,15.30
2008,07,16,08,59,15.20
2008,07,16,09,00,15.30
2008,07,16,09,01,15.30
2008,07,16,09,02,15.30
2008,07,16,09,03,15.30
2008,07,16,09,04,15.30
2008,07,16,09,05,15.30
2008,07,16,09,06,15.30
2008,07,16,09,07,15.30
2008,07,16,09,08,15.30
2008,07,16,09,09,15.40
2008,07,16,09,10,15.40
2008,07,16,09,11,15.50
2008,07,16,09,12,15.50
2008,07,16,09,13,15.50
2008,07,16,09,14,15.50
2008,07,16,09,15,15.60
2008,07,16,09,16,15.60
2008,07,16,09,17,15.70
2008,07,16,09,18,15.70
2008,07,16,09,19,15.80
2008,07,16,09,20,15.80
2008,07,16,09,21,15.80
2008,07,16,09,22,15.90
2008,07,16,09,23,16.00
2008,07,16,09,24,16.00
2008,07,16,09,25,15.90
2008,07,16,09,26,15.90
2008,07,16,09,27,15.80
2008,07,16,09,28,15.70
2008,07,16,09,29,15.80
2008,07,16,09,30,15.80
2008,07,16,09,31,15.70
2008,07,16,09,32,15.60
2008,07,16,09,33,15.60
2008,07,16,09,34,15.50
2008,07,16,09,35,15.40
2008,07,16,09,36,15.50
2008,07,16,09,37,15.50
2008,07,16,09,38,15.50
2008,07,16,09,39,15.50
2008,07,16,09,40,15.60
2008,07,16,09,41,15.60
2008,07,16,09,42,15.70
2008,07,16,09,43,15.60
2008,07,16,09,44,15.60
2008,07,16,09,45,15.50
2008,07,16,09,46,15.50
2008,07,16,09,47,15.40
2008,07,16,09,48,15.40
2008,07,16,09,49,15.30
2008,07,16,09,50,15.40
2008,07,16,09,51,15.40
2008,07,16,09,52,15.40
2008,07,16,09,53,15.40
2008,07,16,09,54,15.50
2008,07,16,09,55,15.60
2008,07,16,09,56,15.60
2008,07,16,09,57,15.60
2008,07,16,09,58,15.70
2008,07,16,09,59,15.80
2008,07,16,10,00,15.90
2008,07,16,10,01,16.00
2008,07,16,10,02,16.00
2008,07,16,10,03,15.90
2008,07,16,10,04,15.90
2008,07,16,10,05,16.00
2008,07,16,10,06,16.00
2008,07,16,10,07,16.00
2008,07,16,10,08,15.90
2008,07,16,10,09,15.90
2008,07,16,10,10,15.90
2008,07,16,10,11,15.90
2008,07,16,10,12,15.90
2008,07,16,10,13,15.90
2008,07,16,10,14,15.90
2008,07,16,10,15,16.00
2008,07,16,10,16,16.00
2008,07,16,10,17,16.00
2008,07,16,10,18,16.10
2008,07,16,10,19,16.10
2008,07,16,10,20,16.00
2008,07,16,10,21,15.90
2008,07,16,10,22,15.90
2008,07,16,10,23,15.80
2008,07,16,10,24,15.80
2008,07,16,10,25,15.80
2008,07,16,10,26,15.80
2008,07,16,10,27,15.80
2008,07,16,10,28,15.80
2008,07,16,10,29,15.70
2008,07,16,10,30,15.70
2008,07,16,10,31,15.70
2008,07,16,10,32,15.70
2008,07,16,10,33,15.60
2008,07,16,10,34,15.60
2008,07,16,10,35,15.60
2008,07,16,10,36,15.60
2008,07,16,10,37,15.70
2008,07,16,10,38,15.70
2008,07,16,10,39,15.70
2008,07,16,10,40,15.80
2008,07,16,10,41,15.80
2008,07,16,10,42,15.80
2008,07,16,10,43,15.70
2008,07,16,10,44,15.80
2008,07,16,10,45,15.80
2008,07,16,10,46,15.80
2008,07,16,10,47,15.90
2008,07,16,10,48,15.90
2008,07,16,10,49,15.90
2008,07,16,10,50,15.80
2008,07,16,10,51,15.80
2008,07,16,10,52,15.80
2008,07,16,10,53,15.80
2008,07,16,10,54,15.80
2008,07,16,10,55,15.80
2008,07,16,10,56,15.80
2008,07,16,10,57,15.90
2008,07,16,10,58,15.90
2008,07,16,10,59,15.90
2008,07,16,11,00,15.90
2008,07,16,11,01,15.80
2008,07,16,11,02,15.90
2008,07,16,11,03,15.90
2008,07,16,11,04,15.90
2008,07,16,11,05,16.00
2008,07,16,11,06,16.10
2008,07,16,11,07,16.20
2008,07,16,11,08,16.20
2008,07,16,11,09,16.10
2008,07,16,11,10,16.10
2008,07,16,11,11,16.00
2008,07,16,11,12,16.00
2008,07,16,11,13,15.90
2008,07,16,11,14,16.00
2008,07,16,11,15,16.00
2008,07,16,11,16,16.00
2008,07,16,11,17,16.00
2008,07,16,11,18,16.00
2008,07,16,11,19,15.90
2008,07,16,11,20,16.00
2008,07,16,11,21,15.90
2008,07,16,11,22,15.90
2008,07,16,11,23,15.90
2008,07,16,11,24,16.00
2008,07,16,11,25,16.10
2008,07,16,11,26,16.10
2008,07,16,11,27,16.20
2008,07,16,11,28,16.40
2008,07,16,11,29,16.40
2008,07,16,11,30,16.40
2008,07,16,11,31,16.30
2008,07,16,11,32,16.20
2008,07,16,11,33,16.20
2008,07,16,11,34,16.20
2008,07,16,11,35,16.20
2008,07,16,11,36,16.20
2008,07,16,11,37,16.20
2008,07,16,11,38,16.20
2008,07,16,11,39,16.20
2008,07,16,11,40,16.20
2008,07,16,11,41,16.20
2008,07,16,11,42,16.30
2008,07,16,11,43,16.30
2008,07,16,11,44,16.30
2008,07,16,11,45,16.30
2008,07,16,11,46,16.30
2008,07,16,11,47,16.30
2008,07,16,11,48,16.30
2008,07,16,11,49,16.30
2008,07,16,11,50,16.30
2008,07,16,11,51,16.30
2008,07,16,11,52,16.30
2008,07,16,11,53,16.30
2008,07,16,11,54,16.20
2008,07,16,11,55,16.30
2008,07,16,11,56,16.30
2008,07,16,11,57,16.40
2008,07,16,11,58,16.50
2008,07,16,11,59,16.60
2008,07,16,12,00,16.70
2008,07,16,12,01,16.70
2008,07,16,12,02,16.70
2008,07,16,12,03,16.80
2008,07,16,12,04,16.80
2008,07,16,12,05,16.80
2008,07,16,12,06,16.90
2008,07,16,12,07,16.90
2008,07,16,12,08,16.90
2008,07,16,12,09,17.00
2008,07,16,12,10,17.00
2008,07,16,12,11,16.90
2008,07,16,12,12,17.00
2008,07,16,12,13,17.10
2008,07,16,12,14,17.10
2008,07,16,12,15,17.20
2008,07,16,12,16,17.30
2008,07,16,12,17,17.30
2008,07,16,12,18,17.30
2008,07,16,12,19,17.40
2008,07,16,12,20,17.40
2008,07,16,12,21,17.40
2008,07,16,12,22,17.30
2008,07,16,12,23,17.30
2008,07,16,12,24,17.30
2008,07,16,12,25,17.30
2008,07,16,12,26,17.40
2008,07,16,12,27,17.40
2008,07,16,12,28,17.40
2008,07,16,12,29,17.40
2008,07,16,12,30,17.40
2008,07,16,12,31,17.50
2008,07,16,12,32,17.60
2008,07,16,12,33,17.60
2008,07,16,12,34,17.60
2008,07,16,12,35,17.60
2008,07,16,12,36,17.60
2008,07,16,12,37,17.60
2008,07,16,12,38,17.70
2008,07,16,12,39,17.80
2008,07,16,12,40,17.90
2008,07,16,12,41,17.90
2008,07,16,12,42,17.90
2008,07,16,12,43,17.80
2008,07,16,12,44,17.70
2008,07,16,12,45,17.70
2008,07,16,12,46,17.60
2008,07,16,12,47,17.60
2008,07,16,12,48,17.60
2008,07,16,12,49,17.70
2008,07,16,12,50,17.70
2008,07,16,12,51,17.60
2008,07,16,12,52,17.60
2008,07,16,12,53,17.50
2008,07,16,12,54,17.50
2008,07,16,12,55,17.50
2008,07,16,12,56,17.50
2008,07,16,12,57,17.60
2008,07,16,12,58,17.60
2008,07,16,12,59,17.60
2008,07,16,13,00,17.60
2008,07,16,13,01,17.60
2008,07,16,13,02,17.60
2008,07,16,13,03,17.70
2008,07,16,13,04,17.70
2008,07,16,13,05,17.80
2008,07,16,13,06,17.90
2008,07,16,13,07,17.90
2008,07,16,13,08,17.90
2008,07,16,13,09,17.90
2008,07,16,13,10,17.90
2008,07,16,13,11,17.90
2008,07,16,13,12,17.80
2008,07,16,13,13,17.80
2008,07,16,13,14,17.80
2008,07,16,13,15,17.80
2008,07,16,13,16,17.80
2008,07,16,13,17,17.90
2008,07,16,13,18,17.90
2008,07,16,13,19,18.00
2008,07,16,13,20,18.10
2008,07,16,13,21,18.20
2008,07,16,13,22,18.20
2008,07,16,13,23,18.30
2008,07,16,13,24,18.30
2008,07,16,13,25,18.40
2008,07,16,13,26,18.50
2008,07,16,13,27,18.50
2008,07,16,13,28,18.60
2008,07,16,13,29,18.70
2008,07,16,13,30,18.70
2008,07,16,13,31,18.70
2008,07,16,13,32,18.80
2008,07,16,13,33,18.80
2008,07,16,13,34,18.90
2008,07,16,13,35,19.00
2008,07,16,13,36,19.10
2008,07,16,13,37,19.10
2008,07,16,13,38,19.20
2008,07,16,13,39,19.30
2008,07,16,13,40,19.20
2008,07,16,13,41,19.20
2008,07,16,13,42,19.20
2008,07,16,13,43,19.30
2008,07,16,13,44,19.40
2008,07,16,13,45,19.40
2008,07,16,13,46,19.40
2008,07,16,13,47,19.30
2008,07,16,13,48,19.40
2008,07,16,13,49,19.40
2008,07,16,13,50,19.40
2008,07,16,13,51,19.40
2008,07,16,13,52,19.40
2008,07,16,13,53,19.40
2008,07,16,13,54,19.40
2008,07,16,13,55,19.40
2008,07,16,13,56,19.50
2008,07,16,13,57,19.50
2008,07,16,13,58,19.50
2008,07,16,13,59,19.60
2008,07,16,14,00,19.60
2008,07,16,14,01,19.70
2008,07,16,14,02,19.80
2008,07,16,14,03,19.80
2008,07,16,14,04,19.80
2008,07,16,14,05,19.90
2008,07,16,14,06,20.00
2008,07,16,14,07,20.10
2008,07,16,14,08,20.20
2008,07,16,14,09,20.30
2008,07,16,14,10,20.40
2008,07,16,14,11,20.60
2008,07,16,14,12,20.70
2008,07,16,14,13,20.70
2008,07,16,14,14,20.80
2008,07,16,14,15,20.80
2008,07,16,14,16,20.80
2008,07,16,14,17,20.90
2008,07,16,14,18,20.90
2008,07,16,14,19,20.90
2008,07,16,14,20,21.00
2008,07,16,14,21,21.10
2008,07,16,14,22,21.10
2008,07,16,14,23,21.00
2008,07,16,14,24,20.90
2008,07,16,14,25,20.90
2008,07,16,14,26,20.80
2008,07,16,14,27,20.70
2008,07,16,14,28,20.60
2008,07,16,14,29,20.70
2008,07,16,14,30,20.70
2008,07,16,14,31,20.70
2008,07,16,14,32,20.70
2008,07,16,14,33,20.70
2008,07,16,14,34,20.70
2008,07,16,14,35,20.70
2008,07,16,14,36,20.70
2008,07,16,14,37,20.70
2008,07,16,14,38,20.60
2008,07,16,14,39,20.60
2008,07,16,14,40,20.70
2008,07,16,14,41,20.70
2008,07,16,14,42,20.80
2008,07,16,14,43,20.80
2008,07,16,14,44,20.80
2008,07,16,14,45,20.70
2008,07,16,14,46,20.70
2008,07,16,14,47,20.60
2008,07,16,14,48,20.60
2008,07,16,14,49,20.50
2008,07,16,14,50,20.50
2008,07,16,14,51,20.40
2008,07,16,14,52,20.30
2008,07,16,14,53,20.30
2008,07,16,14,54,20.20
2008,07,16,14,55,20.20
2008,07,16,14,56,20.20
2008,07,16,14,57,20.20
2008,07,16,14,58,20.10
2008,07,16,14,59,20.00
2008,07,16,15,00,20.00
2008,07,16,15,01,20.00
2008,07,16,15,02,20.00
2008,07,16,15,03,20.10
2008,07,16,15,04,20.20
2008,07,16,15,05,20.30
2008,07,16,15,06,20.30
2008,07,16,15,07,20.30
2008,07,16,15,08,20.30
2008,07,16,15,09,20.30
2008,07,16,15,10,20.30
2008,07,16,15,11,20.20
2008,07,16,15,12,20.20
2008,07,16,15,13,20.10
2008,07,16,15,14,20.10
2008,07,16,15,15,20.00
2008,07,16,15,16,20.00
2008,07,16,15,17,20.00
2008,07,16,15,18,20.00
2008,07,16,15,19,20.10
2008,07,16,15,20,20.10
2008,07,16,15,21,20.10
2008,07,16,15,22,20.10
2008,07,16,15,23,20.10
2008,07,16,15,24,20.10
2008,07,16,15,25,20.20
2008,07,16,15,26,20.20
2008,07,16,15,27,20.20
2008,07,16,15,28,20.10
2008,07,16,15,29,20.10
2008,07,16,15,30,20.10
2008,07,16,15,31,20.10
2008,07,16,15,32,20.10
2008,07,16,15,33,20.10
2008,07,16,15,34,20.10
2008,07,16,15,35,20.10
2008,07,16,15,36,20.10
2008,07,16,15,37,20.10
2008,07,16,15,38,20.20
2008,07,16,15,39,20.30
2008,07,16,15,40,20.40
2008,07,16,15,41,20.50
2008,07,16,15,42,20.60
2008,07,16,15,43,20.60
2008,07,16,15,44,20.70
2008,07,16,15,45,20.80
2008,07,16,15,46,20.70
2008,07,16,15,47,20.70
2008,07,16,15,48,20.80
2008,07,16,15,49,20.90
2008,07,16,15,50,21.00
2008,07,16,15,51,21.00
2008,07,16,15,52,21.00
2008,07,16,15,53,21.00
2008,07,16,15,54,20.90
2008,07,16,15,55,20.90
2008,07,16,15,56,20.90
2008,07,16,15,57,21.00
2008,07,16,15,58,21.00
2008,07,16,15,59,21.00
2008,07,16,16,00,21.00
2008,07,16,16,01,21.10
2008,07,16,16,02,21.00
2008,07,16,16,03,21.00
2008,07,16,16,04,21.00
2008,07,16,16,05,20.90
2008,07,16,16,06,20.90
2008,07,16,16,07,20.90
2008,07,16,16,08,20.90
2008,07,16,16,09,20.80
2008,07,16,16,10,20.80
2008,07,16,16,11,20.80
2008,07,16,16,12,20.80
2008,07,16,16,13,20.90
2008,07,16,16,14,20.90
2008,07,16,16,15,20.90
2008,07,16,16,16,20.90
2008,07,16,16,17,20.90
2008,07,16,16,18,20.90
2008,07,16,16,19,20.80
2008,07,16,16,20,20.80
2008,07,16,16,21,20.80
2008,07,16,16,22,20.90
2008,07,16,16,23,20.90
2008,07,16,16,24,20.80
2008,07,16,16,25,20.80
2008,07,16,16,26,20.80
2008,07,16,16,27,20.80
2008,07,16,16,28,20.80
2008,07,16,16,29,20.80
2008,07,16,16,30,20.80
2008,07,16,16,31,20.80
2008,07,16,16,32,20.80
2008,07,16,16,33,20.80
2008,07,16,16,34,20.80
2008,07,16,16,35,20.90
2008,07,16,16,36,20.90
2008,07,16,16,37,20.90
2008,07,16,16,38,21.00
2008,07,16,16,39,21.00
2008,07,16,16,40,21.10
2008,07,16,16,41,21.20
2008,07,16,16,42,21.20
2008,07,16,16,43,21.20
2008,07,16,16,44,21.20
2008,07,16,16,45,21.10
2008,07,16,16,46,21.00
2008,07,16,16,47,20.90
2008,07,16,16,48,20.90
2008,07,16,16,49,21.00
2008,07,16,16,50,21.10
2008,07,16,16,51,21.10
2008,07,16,16,52,21.00
2008,07,16,16,53,20.90
2008,07,16,16,54,20.90
2008,07,16,16,55,21.00
2008,07,16,16,56,21.10
2008,07,16,16,57,21.10
2008,07,16,16,58,21.10
2008,07,16,16,59,21.10
2008,07,16,17,00,21.10
2008,07,16,17,01,21.10
2008,07,16,17,02,21.10
2008,07,16,17,03,21.00
2008,07,16,17,04,20.90
2008,07,16,17,05,20.90
2008,07,16,17,06,20.80
2008,07,16,17,07,20.90
2008,07,16,17,08,20.90
2008,07,16,17,09,20.90
2008,07,16,17,10,20.90
2008,07,16,17,11,21.00
2008,07,16,17,12,21.00
2008,07,16,17,13,21.10
2008,07,16,17,14,21.20
2008,07,16,17,15,21.20
2008,07,16,17,16,21.20
2008,07,16,17,17,21.20
2008,07,16,17,18,21.20
2008,07,16,17,19,21.10